Weather History for Broken Bow, NE

Change the Weather History Date:

Monday, October 10, 2011

  Actual Average Record
Temperature  
Mean Temperature 56 °F 52 °F  
Max Temperature 66 °F 65 °F 88 °F (1962)
Min Temperature 46 °F 38 °F 15 °F (1906)
Degree Days  
Heating Degree Days 9 14  
Month to date heating degree days 47 120  
Cooling Degree Days 0 0  
Month to date cooling degree days 8 2  
Year to date cooling degree days 755 764  
Growing Degree Days 6 (Base 50)    
Moisture  
Dew Point 47 °F    
Average Humidity 74    
Maximum Humidity 100    
Minimum Humidity 48    
Precipitation  
Precipitation 0.00 in 0.06 in 3.90 in (1898)
Sea Level Pressure  
Sea Level Pressure 29.97 in    
Wind  
Wind Speed 8 mph (SSW)    
Max Wind Speed 21 mph    
Max Gust Speed 30 mph    
Visibility 10 miles    
Events      
T = Trace of Precipitation, MM = Missing Value Source: NWS Daily Summary

Daily Weather History Graph

Daily Weather History Graph

Search for Another Location

Airport:

Trip Planner

Search our weather history database for the weather conditions in past years. The results will help you decide how hot, cold, wet, or windy it might be!

Date:

Astronomy

Oct. 10, 2011 Rise Set
Actual Time 7:44 AM CDT 7:05 PM CDT
Civil Twilight 7:16 AM CDT 7:33 PM CDT
Nautical Twilight 6:44 AM CDT 8:05 PM CDT
Astronomical Twilight 6:12 AM CDT 8:37 PM CDT
Moon 6:10 PM CDT (10/10) 6:27 AM CDT (10/10)
Length of Visible Light 12h 16m
Length of Day
11h 21m
Waxing Gibbous, 98% of the Moon is Illuminated
Oct 10
Waxing Gibbous
Oct 11
Full
Oct 19
Last Quarter
Oct 26
New
Nov 2
First Quarter

Hourly Weather History & Observations

Time (CDT) Temp. Windchill Dew Point Humidity Pressure Visibility Wind Dir Wind Speed Gust Speed Precip Events Conditions
12:05 AM 51.8 °F - 50.0 °F 94% 30.03 in 10.0 mi SSW 9.2 mph - N/A   Overcast
12:19 AM 51.8 °F - 50.0 °F 94% 30.03 in 10.0 mi SSW 9.2 mph - N/A   Overcast
12:43 AM 51.8 °F - 48.2 °F 88% 30.01 in 10.0 mi SSW 6.9 mph - N/A   Overcast
12:53 AM 51.1 °F - 48.9 °F 92% 30.01 in 10.0 mi SSW 5.8 mph - N/A   Overcast
1:16 AM 51.8 °F - 50.0 °F 94% 30.01 in 10.0 mi SSW 5.8 mph - N/A   Overcast
1:53 AM 50.0 °F - 48.9 °F 96% 30.00 in 10.0 mi SSW 4.6 mph - N/A   Overcast
2:41 AM 50.0 °F - 48.2 °F 94% 30.00 in 10.0 mi Calm Calm - N/A   Overcast
2:53 AM 50.0 °F - 48.9 °F 96% 29.99 in 10.0 mi SSW 8.1 mph - N/A   Overcast
3:10 AM 50.0 °F - 48.2 °F 94% 30.00 in 10.0 mi SSW 3.5 mph - N/A   Overcast
3:53 AM 50.0 °F - 48.0 °F 93% 29.99 in 10.0 mi SW 6.9 mph - N/A   Overcast
4:53 AM 48.9 °F - 48.0 °F 97% 29.99 in 10.0 mi South 3.5 mph - N/A   Overcast
5:49 AM 48.2 °F - 46.4 °F 93% 30.00 in 10.0 mi WSW 5.8 mph - N/A   Overcast
5:53 AM 48.0 °F - 46.9 °F 96% 30.01 in 10.0 mi SW 4.6 mph - N/A   Overcast
6:53 AM 48.0 °F - 46.9 °F 96% 30.01 in 10.0 mi SW 6.9 mph - N/A   Overcast
7:53 AM 46.4 °F 43.5 °F 44.6 °F 93% 30.00 in 10.0 mi SSW 5.8 mph - N/A   Overcast
8:16 AM 46.4 °F 42.9 °F 44.6 °F 93% 30.00 in 10.0 mi SSW 6.9 mph - N/A   Overcast
8:53 AM 46.9 °F - 45.0 °F 93% 30.02 in 10.0 mi SSW 4.6 mph - N/A   Overcast
9:45 AM 46.4 °F 42.4 °F 44.6 °F 93% 30.01 in 10.0 mi SSW 8.1 mph - N/A   Overcast
9:53 AM 46.4 °F 44.3 °F 46.4 °F 100% 30.01 in 10.0 mi SSW 4.6 mph - N/A   Overcast
10:24 AM 51.8 °F - 46.4 °F 82% 30.01 in 10.0 mi SSW 6.9 mph - N/A   Scattered Clouds
10:53 AM 53.1 °F - 46.9 °F 80% 30.01 in 10.0 mi SSW 11.5 mph - N/A   Clear
11:53 AM 57.2 °F - 46.4 °F 67% 30.00 in 10.0 mi SSW 9.2 mph 20.7 mph N/A   Clear
12:53 PM 62.6 °F - 48.2 °F 59% 29.98 in 10.0 mi SSW 15.0 mph 21.9 mph N/A   Clear
1:53 PM 63.0 °F - 46.9 °F 56% 29.94 in 10.0 mi South 16.1 mph 24.2 mph N/A   Clear
2:53 PM 64.9 °F - 46.9 °F 52% 29.91 in 10.0 mi SSW 13.8 mph 24.2 mph N/A   Clear
3:53 PM 66.0 °F - 46.9 °F 50% 29.89 in 10.0 mi SSW 13.8 mph 27.6 mph N/A   Clear
4:53 PM 66.0 °F - 46.9 °F 50% 29.88 in 10.0 mi SW 12.7 mph 24.2 mph N/A   Clear
5:53 PM 64.9 °F - 46.0 °F 50% 29.88 in 10.0 mi SSW 11.5 mph - N/A   Clear
6:53 PM 62.1 °F - 48.0 °F 60% 29.88 in 10.0 mi South 10.4 mph - N/A   Clear
7:53 PM 57.0 °F - 48.0 °F 72% 29.90 in 10.0 mi South 6.9 mph - N/A   Clear
8:53 PM 55.0 °F - 46.9 °F 74% 29.91 in 10.0 mi ESE 4.6 mph - N/A   Clear
9:53 PM 54.0 °F - 46.9 °F 77% 29.91 in 10.0 mi ESE 5.8 mph - N/A   Clear
10:53 PM 52.0 °F - 48.0 °F 86% 29.90 in 10.0 mi SE 3.5 mph - N/A   Clear
11:53 PM 52.0 °F - 48.0 °F 86% 29.88 in 10.0 mi SSE 4.6 mph - N/A   Clear